(°C)
24°
26°
28°
30°
32°
33°
34°
(°C)
26°
28°
30°
31°
33°
34°
35°
ССВ
СВ
ВСВ
ВСВ
ВСВ
ВСВ
ВСВ
(км/ч)
5-12
5-13
7-13
9-14
10-16
10-17
10-18
(мм)
0
0
0
0
0
0
0
(%)
1
1
1
1
1
1
1

Высота солнцестояния

/ 17.8°
sun-icon
UV 7
04:02
20:48
Убывающая луна (190°)
21:57
04:10

METAR для 51.82°С 39.23°В (UUOO)

Время Условия Температура/
Точка росы
Ветер Видимость Погода Облачность Давление Изменить Необработанный
VFR 24°C / 17°C variable 0kt >10km - Clouds and Visibility OK 1017 No Significant change. Runway 12: Clear and dry, 1-10% contamination with <1mm, friction coefficient 0.70. UUOO 250300Z 00000MPS CAVOK 24/17 Q1017 R12/010070 NOSIG RMK QFE749
VFR 22°C / 17°C variable 0kt >10km - Clouds and Visibility OK 1017 No Significant change. Runway 12: Clear and dry, 1-10% contamination with <1mm, friction coefficient 0.70. UUOO 250230Z 00000MPS CAVOK 22/17 Q1017 R12/010070 NOSIG RMK QFE749
VFR 20°C / 17°C 310º 2kt >10km - Clouds and Visibility OK 1017 No Significant change. Runway 12: Clear and dry, 1-10% contamination with <1mm, friction coefficient 0.70. UUOO 250200Z 31001MPS CAVOK 20/17 Q1017 R12/010070 NOSIG RMK QFE749
VFR 20°C / 16°C 310º 2kt >10km - Clouds and Visibility OK 1017 No Significant change. Runway 12: Clear and dry, 1-10% contamination with <1mm, friction coefficient 0.70. UUOO 250130Z 31001MPS CAVOK 20/16 Q1017 R12/010070 NOSIG RMK QFE749
VFR 18°C / 16°C variable 0kt >10km - Clouds and Visibility OK 1017 No Significant change. Runway 12: Clear and dry, 1-10% contamination with <1mm, friction coefficient 0.70. UUOO 250100Z 00000MPS CAVOK 18/16 Q1017 R12/010070 NOSIG RMK QFE749
VFR 19°C / 16°C variable 0kt >10km - Clouds and Visibility OK 1017 No Significant change. Runway 12: Clear and dry, 1-10% contamination with <1mm, friction coefficient 0.70. UUOO 250030Z 00000MPS CAVOK 19/16 Q1017 R12/010070 NOSIG RMK QFE749
VFR 20°C / 16°C variable 0kt >10km - Clouds and Visibility OK 1017 No Significant change. Runway 12: Clear and dry, 1-10% contamination with <1mm, friction coefficient 0.70. UUOO 250000Z 00000MPS CAVOK 20/16 Q1017 R12/010070 NOSIG RMK QFE749
VFR 21°C / 16°C 320º 2kt >10km - Clouds and Visibility OK 1017 No Significant change. Runway 12: Clear and dry, 1-10% contamination with <1mm, friction coefficient 0.70. UUOO 242330Z 32001MPS CAVOK 21/16 Q1017 R12/010070 NOSIG RMK QFE749
VFR 21°C / 16°C variable 0kt >10km - Clouds and Visibility OK 1017 No Significant change. Runway 12: Clear and dry, 1-10% contamination with <1mm, friction coefficient 0.70. UUOO 242300Z 00000MPS CAVOK 21/16 Q1017 R12/010070 NOSIG RMK QFE749
VFR 22°C / 16°C variable 0kt >10km - Clouds and Visibility OK 1017 No Significant change. Runway 12: Clear and dry, 1-10% contamination with <1mm, friction coefficient 0.70. UUOO 242230Z 00000MPS CAVOK 22/16 Q1017 R12/010070 NOSIG RMK QFE749
VFR 22°C / 16°C variable 0kt >10km - Clouds and Visibility OK 1017 No Significant change. Runway 12: Clear and dry, 1-10% contamination with <1mm, friction coefficient 0.70. UUOO 242200Z 00000MPS CAVOK 22/16 Q1017 R12/010070 NOSIG RMK QFE749
VFR 22°C / 16°C variable 0kt >10km - Clouds and Visibility OK 1017 No Significant change. Runway 12: Clear and dry, 1-10% contamination with <1mm, friction coefficient 0.70. UUOO 242130Z 00000MPS CAVOK 22/16 Q1017 R12/010070 NOSIG RMK QFE749
VFR 23°C / 16°C 70º 2kt >10km - Clouds and Visibility OK 1017 No Significant change. Runway 12: Clear and dry, 1-10% contamination with <1mm, friction coefficient 0.70. UUOO 242100Z 07001MPS CAVOK 23/16 Q1017 R12/010070 NOSIG RMK QFE749
VFR 23°C / 16°C variable 0kt >10km - Clouds and Visibility OK 1017 No Significant change. Runway 12: Clear and dry, 1-10% contamination with <1mm, friction coefficient 0.70. UUOO 242030Z 00000MPS CAVOK 23/16 Q1017 R12/010070 NOSIG RMK QFE749
VFR 23°C / 17°C variable 0kt >10km - Clouds and Visibility OK 1017 No Significant change. Runway 12: Clear and dry, 1-10% contamination with <1mm, friction coefficient 0.70. UUOO 242000Z 00000MPS CAVOK 23/17 Q1017 R12/010070 NOSIG RMK QFE749
VFR 23°C / 17°C variable 0kt >10km - Clouds and Visibility OK 1017 No Significant change. Runway 12: Clear and dry, 1-10% contamination with <1mm, friction coefficient 0.70. UUOO 241930Z 00000MPS CAVOK 23/17 Q1017 R12/010070 NOSIG RMK QFE749
VFR 24°C / 17°C 80º 2kt >10km - Clouds and Visibility OK 1018 No Significant change. Runway 12: Clear and dry, 1-10% contamination with <1mm, friction coefficient 0.70. UUOO 241900Z 08001MPS CAVOK 24/17 Q1018 R12/010070 NOSIG RMK QFE749
VFR 26°C / 16°C 70º 4kt >10km - Clouds and Visibility OK 1018 No Significant change. Runway 12: Clear and dry, 1-10% contamination with <1mm, friction coefficient 0.70. UUOO 241830Z 07002MPS CAVOK 26/16 Q1018 R12/010070 NOSIG RMK QFE749
VFR 26°C / 17°C 70º 4kt >10km - Clouds and Visibility OK 1018 No Significant change. Runway 12: Clear and dry, 1-10% contamination with <1mm, friction coefficient 0.70. UUOO 241800Z 07002MPS CAVOK 26/17 Q1018 R12/010070 NOSIG RMK QFE749
VFR 26°C / 18°C 60º 4kt >10km - Clouds and Visibility OK 1017 No Significant change. Runway 12: Clear and dry, 1-10% contamination with <1mm, friction coefficient 0.70. UUOO 241730Z 06002MPS CAVOK 26/18 Q1017 R12/010070 NOSIG RMK QFE749
VFR 28°C / 18°C 70º 4kt >10km - Clouds and Visibility OK 1017 No Significant change. Runway 12: Clear and dry, 1-10% contamination with <1mm, friction coefficient 0.70. UUOO 241700Z 07002MPS CAVOK 28/18 Q1017 R12/010070 NOSIG RMK QFE749
VFR 29°C / 18°C 50º 2kt >10km - Clouds and Visibility OK 1018 No Significant change. Runway 12: Clear and dry, 1-10% contamination with <1mm, friction coefficient 0.70. UUOO 241630Z 05001MPS CAVOK 29/18 Q1018 R12/010070 NOSIG RMK QFE749
VFR 31°C / 19°C variable 0kt >10km - Clouds and Visibility OK 1018 No Significant change. Runway 12: Clear and dry, 1-10% contamination with <1mm, friction coefficient 0.70. UUOO 241600Z 00000MPS CAVOK 31/19 Q1018 R12/010070 NOSIG RMK QFE749
VFR 31°C / 17°C 50º 4kt >10km - Clouds and Visibility OK 1018 No Significant change. Runway 12: Clear and dry, 1-10% contamination with <1mm, friction coefficient 0.70. UUOO 241530Z 05002MPS CAVOK 31/17 Q1018 R12/010070 NOSIG RMK QFE749

VFR

24°C / 17°C

[Больше]
Ветер variable 0kt
Видимость >10km
Погода -
Облачность Clouds and Visibility OK
Давление 1017
Изменить No Significant change. Runway 12: Clear and dry, 1-10% contamination with <1mm, friction coefficient 0.70.
Необработанный UUOO 250300Z 00000MPS CAVOK 24/17 Q1017 R12/010070 NOSIG RMK QFE749

VFR

22°C / 17°C

[Больше]
Ветер variable 0kt
Видимость >10km
Погода -
Облачность Clouds and Visibility OK
Давление 1017
Изменить No Significant change. Runway 12: Clear and dry, 1-10% contamination with <1mm, friction coefficient 0.70.
Необработанный UUOO 250230Z 00000MPS CAVOK 22/17 Q1017 R12/010070 NOSIG RMK QFE749

VFR

20°C / 17°C

[Больше]
Ветер 310º 2kt
Видимость >10km
Погода -
Облачность Clouds and Visibility OK
Давление 1017
Изменить No Significant change. Runway 12: Clear and dry, 1-10% contamination with <1mm, friction coefficient 0.70.
Необработанный UUOO 250200Z 31001MPS CAVOK 20/17 Q1017 R12/010070 NOSIG RMK QFE749

VFR

20°C / 16°C

[Больше]
Ветер 310º 2kt
Видимость >10km
Погода -
Облачность Clouds and Visibility OK
Давление 1017
Изменить No Significant change. Runway 12: Clear and dry, 1-10% contamination with <1mm, friction coefficient 0.70.
Необработанный UUOO 250130Z 31001MPS CAVOK 20/16 Q1017 R12/010070 NOSIG RMK QFE749

VFR

18°C / 16°C

[Больше]
Ветер variable 0kt
Видимость >10km
Погода -
Облачность Clouds and Visibility OK
Давление 1017
Изменить No Significant change. Runway 12: Clear and dry, 1-10% contamination with <1mm, friction coefficient 0.70.
Необработанный UUOO 250100Z 00000MPS CAVOK 18/16 Q1017 R12/010070 NOSIG RMK QFE749

VFR

19°C / 16°C

[Больше]
Ветер variable 0kt
Видимость >10km
Погода -
Облачность Clouds and Visibility OK
Давление 1017
Изменить No Significant change. Runway 12: Clear and dry, 1-10% contamination with <1mm, friction coefficient 0.70.
Необработанный UUOO 250030Z 00000MPS CAVOK 19/16 Q1017 R12/010070 NOSIG RMK QFE749

VFR

20°C / 16°C

[Больше]
Ветер variable 0kt
Видимость >10km
Погода -
Облачность Clouds and Visibility OK
Давление 1017
Изменить No Significant change. Runway 12: Clear and dry, 1-10% contamination with <1mm, friction coefficient 0.70.
Необработанный UUOO 250000Z 00000MPS CAVOK 20/16 Q1017 R12/010070 NOSIG RMK QFE749

VFR

21°C / 16°C

[Больше]
Ветер 320º 2kt
Видимость >10km
Погода -
Облачность Clouds and Visibility OK
Давление 1017
Изменить No Significant change. Runway 12: Clear and dry, 1-10% contamination with <1mm, friction coefficient 0.70.
Необработанный UUOO 242330Z 32001MPS CAVOK 21/16 Q1017 R12/010070 NOSIG RMK QFE749

VFR

21°C / 16°C

[Больше]
Ветер variable 0kt
Видимость >10km
Погода -
Облачность Clouds and Visibility OK
Давление 1017
Изменить No Significant change. Runway 12: Clear and dry, 1-10% contamination with <1mm, friction coefficient 0.70.
Необработанный UUOO 242300Z 00000MPS CAVOK 21/16 Q1017 R12/010070 NOSIG RMK QFE749

VFR

22°C / 16°C

[Больше]
Ветер variable 0kt
Видимость >10km
Погода -
Облачность Clouds and Visibility OK
Давление 1017
Изменить No Significant change. Runway 12: Clear and dry, 1-10% contamination with <1mm, friction coefficient 0.70.
Необработанный UUOO 242230Z 00000MPS CAVOK 22/16 Q1017 R12/010070 NOSIG RMK QFE749

VFR

22°C / 16°C

[Больше]
Ветер variable 0kt
Видимость >10km
Погода -
Облачность Clouds and Visibility OK
Давление 1017
Изменить No Significant change. Runway 12: Clear and dry, 1-10% contamination with <1mm, friction coefficient 0.70.
Необработанный UUOO 242200Z 00000MPS CAVOK 22/16 Q1017 R12/010070 NOSIG RMK QFE749

VFR

22°C / 16°C

[Больше]
Ветер variable 0kt
Видимость >10km
Погода -
Облачность Clouds and Visibility OK
Давление 1017
Изменить No Significant change. Runway 12: Clear and dry, 1-10% contamination with <1mm, friction coefficient 0.70.
Необработанный UUOO 242130Z 00000MPS CAVOK 22/16 Q1017 R12/010070 NOSIG RMK QFE749

VFR

23°C / 16°C

[Больше]
Ветер 70º 2kt
Видимость >10km
Погода -
Облачность Clouds and Visibility OK
Давление 1017
Изменить No Significant change. Runway 12: Clear and dry, 1-10% contamination with <1mm, friction coefficient 0.70.
Необработанный UUOO 242100Z 07001MPS CAVOK 23/16 Q1017 R12/010070 NOSIG RMK QFE749

VFR

23°C / 16°C

[Больше]
Ветер variable 0kt
Видимость >10km
Погода -
Облачность Clouds and Visibility OK
Давление 1017
Изменить No Significant change. Runway 12: Clear and dry, 1-10% contamination with <1mm, friction coefficient 0.70.
Необработанный UUOO 242030Z 00000MPS CAVOK 23/16 Q1017 R12/010070 NOSIG RMK QFE749

VFR

23°C / 17°C

[Больше]
Ветер variable 0kt
Видимость >10km
Погода -
Облачность Clouds and Visibility OK
Давление 1017
Изменить No Significant change. Runway 12: Clear and dry, 1-10% contamination with <1mm, friction coefficient 0.70.
Необработанный UUOO 242000Z 00000MPS CAVOK 23/17 Q1017 R12/010070 NOSIG RMK QFE749

VFR

23°C / 17°C

[Больше]
Ветер variable 0kt
Видимость >10km
Погода -
Облачность Clouds and Visibility OK
Давление 1017
Изменить No Significant change. Runway 12: Clear and dry, 1-10% contamination with <1mm, friction coefficient 0.70.
Необработанный UUOO 241930Z 00000MPS CAVOK 23/17 Q1017 R12/010070 NOSIG RMK QFE749

VFR

24°C / 17°C

[Больше]
Ветер 80º 2kt
Видимость >10km
Погода -
Облачность Clouds and Visibility OK
Давление 1018
Изменить No Significant change. Runway 12: Clear and dry, 1-10% contamination with <1mm, friction coefficient 0.70.
Необработанный UUOO 241900Z 08001MPS CAVOK 24/17 Q1018 R12/010070 NOSIG RMK QFE749

VFR

26°C / 16°C

[Больше]
Ветер 70º 4kt
Видимость >10km
Погода -
Облачность Clouds and Visibility OK
Давление 1018
Изменить No Significant change. Runway 12: Clear and dry, 1-10% contamination with <1mm, friction coefficient 0.70.
Необработанный UUOO 241830Z 07002MPS CAVOK 26/16 Q1018 R12/010070 NOSIG RMK QFE749

VFR

26°C / 17°C

[Больше]
Ветер 70º 4kt
Видимость >10km
Погода -
Облачность Clouds and Visibility OK
Давление 1018
Изменить No Significant change. Runway 12: Clear and dry, 1-10% contamination with <1mm, friction coefficient 0.70.
Необработанный UUOO 241800Z 07002MPS CAVOK 26/17 Q1018 R12/010070 NOSIG RMK QFE749

VFR

26°C / 18°C

[Больше]
Ветер 60º 4kt
Видимость >10km
Погода -
Облачность Clouds and Visibility OK
Давление 1017
Изменить No Significant change. Runway 12: Clear and dry, 1-10% contamination with <1mm, friction coefficient 0.70.
Необработанный UUOO 241730Z 06002MPS CAVOK 26/18 Q1017 R12/010070 NOSIG RMK QFE749

VFR

28°C / 18°C

[Больше]
Ветер 70º 4kt
Видимость >10km
Погода -
Облачность Clouds and Visibility OK
Давление 1017
Изменить No Significant change. Runway 12: Clear and dry, 1-10% contamination with <1mm, friction coefficient 0.70.
Необработанный UUOO 241700Z 07002MPS CAVOK 28/18 Q1017 R12/010070 NOSIG RMK QFE749

VFR

29°C / 18°C

[Больше]
Ветер 50º 2kt
Видимость >10km
Погода -
Облачность Clouds and Visibility OK
Давление 1018
Изменить No Significant change. Runway 12: Clear and dry, 1-10% contamination with <1mm, friction coefficient 0.70.
Необработанный UUOO 241630Z 05001MPS CAVOK 29/18 Q1018 R12/010070 NOSIG RMK QFE749

VFR

31°C / 19°C

[Больше]
Ветер variable 0kt
Видимость >10km
Погода -
Облачность Clouds and Visibility OK
Давление 1018
Изменить No Significant change. Runway 12: Clear and dry, 1-10% contamination with <1mm, friction coefficient 0.70.
Необработанный UUOO 241600Z 00000MPS CAVOK 31/19 Q1018 R12/010070 NOSIG RMK QFE749

VFR

31°C / 17°C

[Больше]
Ветер 50º 4kt
Видимость >10km
Погода -
Облачность Clouds and Visibility OK
Давление 1018
Изменить No Significant change. Runway 12: Clear and dry, 1-10% contamination with <1mm, friction coefficient 0.70.
Необработанный UUOO 241530Z 05002MPS CAVOK 31/17 Q1018 R12/010070 NOSIG RMK QFE749

TAF для 51.82°С 39.23°В (UUOO)

From till


From till Wind 90º 6kt. Visibility 10km or more. Nil Significant Cloud.

Необработанный: TAF UUOO 250200Z 2503/2512 09003MPS CAVOK

Текущие спутниковые изображения и снимки дождя для 51.82°С 39.23°В

Указатель местности находится на 51.82°С 39.23°В. [Больше]

Спутниковое изображение в реальном времени сочетает в себе видимый свет в дневное время с инфракрасным излучением в ночное время. Ночью изображение получается не темным, так как инфракрасное излучение может обнаружить разницу температур. К сожалению, низкие облака и туман трудно отличить от температуры у поверхности земли и поэтому могут быть почти незаметны ночью. Спутниковые снимки Meteosat для Европы обновляются каждые 5 минут в режиме реального времени.Снимки GOES-16/GOES-17 (Северная и Южная Америка) и Химавари (Азия) обновляются каждые 10 минут.

Копирайт 2021 EUMETSAT / meteoblue. / Копирайт 2021 meteoblue

Радарный и сверхкраткосрочный прогноз осадков для 51.82°С 39.23°В

Индикатор местности находится на 51.82°С 39.23°В. Анимация показывает радар осадков за последний час, а также прогноз погоды для1h. Умеренная морось или легкий снег могут быть незаметны для радара. Интенсивность осадковмаркированна цветной кодировкой, начиная со светло-синего и заканчивая темно-пурпурным.